"Pseudo-MPEC" for P11ZID0

Created 2024 Oct 3 13:22:16 UT using Find_Orb

Click here for an explanation of pseudo-MPECs

 
 Astrometry: 
     P11ZID0* C2024 09 30.60259707 39 14.863+17 41 31.47   ~9UFb 21.87wXNEOCPF51
     P11ZID0  C2024 09 30.60653907 39 15.216+17 41 27.50   ~9UFb 21.50wXNEOCPF51
     P11ZID0  C2024 09 30.61051407 39 15.524+17 41 23.62   ~9UFb 21.35wXNEOCPF51
     P11ZID0  C2024 09 30.61446207 39 15.834+17 41 20.03   ~9UFb 21.49wXNEOCPF51
     P11ZID0 !C2024 10 01.21619307 40 06.077+17 31 33.19   ~A1C7 21.5 GVNEOCPJ04
     P11ZID0 !C2024 10 01.23599607 40 07.705+17 31 14.39   ~A1C7 21.3 GVNEOCPJ04
     P11ZID0 3C2024 10 01.61558107 40 39.198+17 25 03.47   ~A1FM 22.30GVNEOCPT14
     P11ZID0 3C2024 10 01.61697607 40 39.311+17 25 02.15   ~A1FM 22.22GVNEOCPT14
     P11ZID0 3C2024 10 01.61795607 40 39.393+17 25 01.20   ~A1FM 22.33GVNEOCPT14
     P11ZID0 KC2024 10 03.49928607 43 12.965+16 54 02.45   ~A3Cb 23.24GVNEOCPV06
     P11ZID0 KC2024 10 03.50246307 43 13.224+16 53 59.57   ~A3Cb 22.78GVNEOCPV06
     P11ZID0 KC2024 10 03.50881607 43 13.717+16 53 53.09   ~A3Cb 21.97GVNEOCPV06

Station data:
(F51) Pan-STARRS 1, Haleakala  (N20.707234 W156.255910)  US/Hawaii.
   Observers J. Bulger, T. Lowe, A. Schultz, M. Willman. Measurers K.
   Chambers, S. Chastel, T. de Boer, L. Denneau, J. Fairlamb, H. Flewelling,
   M. Huber, C.-C. Lin, E. Magnier, Y. Ramanjooloo, R. Wainscoat, R. Weryk.
   1.8-m Ritchey-Chrétien + CCD.
(J04) ESA Optical Ground Station, Tenerife  (N28.300921 W16.511830)  Canary
   Islands (Spain).  Observer R. Kresken. Measurers M. Micheli, D. Koschny,
   E. Schwab, M. Busch, A. Knöfel. 1.0-m f/4.4 reflector + CCD.
(T14) Mauna Kea-UH/Tholen NEO Follow-Up (CFHT)  (N19.825252 W155.468876)
   US/Hawaii.  Observer R. Weryk. 3.6-m Canada-France-Hawaii Telescope.
(V06) Catalina Sky Survey-Kuiper  (N32.416871 W110.732550)  US/Arizona.
   Observers T. A. Pruyne, B. M. Africano, E. J. Christensen, G. A. Farneth,
   D. C. Fuls, A. R. Gibbs, A. D. Grauer, H. Gröller, J. A. Johnson, R. A.
   Kowalski, S. M. Larson, G. J. Leonard, D. Rankin, R. L. Seaman, F. C.
   Shelly, K. W. Wierzchoś. 1.55-m reflector + CCD.

Orbital elements:  P11ZID0
   Perihelion 2024 Jul 28.37441 +/- 17.9 TT =  8:59:09 (JD 2460519.87441)
Epoch 2024 Oct  3.0 TT = JDT 2460586.5                           AutoNEOCP
M  15.83688000 +/- 6                (J2000 ecliptic)
n   0.23769966 +/- 0.029            Peri.  163.79799 +/- 6
a   2.58097424 +/- 0.21             Node   260.37931 +/- 0.41
e   0.1997258 +/- 0.0508            Incl.   33.36233 +/- 0.10
P   4.14644                H 17.66  G  0.15   U 10.4
q 2.06548709 +/- 0.0382    Q 3.09646140 +/- 0.383
From 12 observations 2024 Sept. 30-Oct. 3; mean residual 0".12
Residuals in arcseconds: 
240930 F51  .09-  .09+    241001 J04  .10-  .23-    241001 T14  .02+  .02+    
240930 F51  .30+  .08-    241001 J04  .02-  .22+    241003 V06  .02-  .12-    
240930 F51  .01+  .12-    241001 T14  .00   .03-    241003 V06  .08+  .15+    
240930 F51  .21-  .11+    241001 T14  .01-  .01+    241003 V06  .07-  .03-    

Ephemerides (geocentric):
Date (UTC) HH   RA             Dec           delta  r     elong  mag " sig PA
---- --------  ------------   ------------  ------ ------ -----  --- --------
2024 10 03 13  07 43 16.241   +16 53 21.67  2.1035 2.0961  75.8 22.1 .227  51
2024 10 03 14  07 43 19.595   +16 52 40.17  2.1030 2.0961  75.8 22.1 .237  50
2024 10 03 15  07 43 22.948   +16 51 58.67  2.1026 2.0962  75.9 22.1 .248  50
2024 10 03 16  07 43 26.298   +16 51 17.14  2.1021 2.0962  75.9 22.1 .259  50
2024 10 03 17  07 43 29.647   +16 50 35.61  2.1017 2.0963  75.9 22.1 .270  49
2024 10 03 18  07 43 32.994   +16 49 54.06  2.1012 2.0963  75.9 22.1 .281  49
2024 10 03 19  07 43 36.338   +16 49 12.49  2.1008 2.0963  76.0 22.1 .293  49
2024 10 03 20  07 43 39.681   +16 48 30.91  2.1003 2.0964  76.0 22.1 .305  49
2024 10 03 21  07 43 43.021   +16 47 49.32  2.0999 2.0964  76.0 22.1 .317  48
2024 10 03 22  07 43 46.360   +16 47 07.71  2.0994 2.0964  76.0 22.1 .330  48
2024 10 03 23  07 43 49.697   +16 46 26.09  2.0990 2.0965  76.1 22.1 .342  48
2024 10 04 00  07 43 53.031   +16 45 44.45  2.0985 2.0965  76.1 22.1 .355  48
2024 10 04 01  07 43 56.364   +16 45 02.80  2.0981 2.0966  76.1 22.1 .368  48
2024 10 04 02  07 43 59.695   +16 44 21.13  2.0976 2.0966  76.1 22.1 .382  47
2024 10 04 03  07 44 03.024   +16 43 39.45  2.0972 2.0966  76.2 22.1 .395  47
2024 10 04 04  07 44 06.350   +16 42 57.76  2.0967 2.0967  76.2 22.1 .409  47
2024 10 04 05  07 44 09.675   +16 42 16.05  2.0963 2.0967  76.2 22.1 .424  47
2024 10 04 06  07 44 12.998   +16 41 34.33  2.0958 2.0967  76.2 22.1 .438  47
2024 10 04 07  07 44 16.318   +16 40 52.59  2.0954 2.0968  76.3 22.1 .453  47
2024 10 04 08  07 44 19.637   +16 40 10.84  2.0949 2.0968  76.3 22.1 .468  46
2024 10 04 09  07 44 22.954   +16 39 29.07  2.0944 2.0969  76.3 22.1 .483  46
2024 10 04 10  07 44 26.269   +16 38 47.29  2.0940 2.0969  76.4 22.1 .498  46
2024 10 04 11  07 44 29.581   +16 38 05.49  2.0935 2.0969  76.4 22.1 .514  46
2024 10 04 12  07 44 32.892   +16 37 23.68  2.0931 2.0970  76.4 22.1 .530  46
2024 10 04 13  07 44 36.201   +16 36 41.86  2.0926 2.0970  76.4 22.1 .546  46
2024 10 04 14  07 44 39.508   +16 36 00.02  2.0922 2.0970  76.5 22.1 .563  46
2024 10 04 15  07 44 42.812   +16 35 18.16  2.0917 2.0971  76.5 22.1 .580  46
2024 10 04 16  07 44 46.115   +16 34 36.30  2.0913 2.0971  76.5 22.1 .597  45
2024 10 04 17  07 44 49.416   +16 33 54.41  2.0908 2.0972  76.5 22.1 .614  45
2024 10 04 18  07 44 52.714   +16 33 12.52  2.0904 2.0972  76.6 22.1 .631  45
2024 10 04 19  07 44 56.011   +16 32 30.61  2.0899 2.0972  76.6 22.1 .649  45
2024 10 04 20  07 44 59.306   +16 31 48.68  2.0895 2.0973  76.6 22.1 .667  45
2024 10 04 21  07 45 02.598   +16 31 06.74  2.0890 2.0973  76.6 22.1 .685  45
2024 10 04 22  07 45 05.889   +16 30 24.79  2.0886 2.0974  76.7 22.1 .704  45
2024 10 04 23  07 45 09.178   +16 29 42.82  2.0881 2.0974  76.7 22.1 .723  45
2024 10 05 00  07 45 12.464   +16 29 00.84  2.0877 2.0974  76.7 22.1 .742  45
2024 10 05 01  07 45 15.749   +16 28 18.84  2.0872 2.0975  76.7 22.1 .761  45
2024 10 05 02  07 45 19.032   +16 27 36.83  2.0868 2.0975  76.8 22.1 .781  45
2024 10 05 03  07 45 22.312   +16 26 54.80  2.0863 2.0975  76.8 22.1 .801  45
2024 10 05 04  07 45 25.591   +16 26 12.76  2.0859 2.0976  76.8 22.1 .821  45
2024 10 05 05  07 45 28.868   +16 25 30.70  2.0854 2.0976  76.8 22.1 .841  44
2024 10 05 06  07 45 32.142   +16 24 48.64  2.0850 2.0977  76.9 22.1 .862  44
2024 10 05 07  07 45 35.415   +16 24 06.55  2.0845 2.0977  76.9 22.1 .882  44
2024 10 05 08  07 45 38.685   +16 23 24.45  2.0840 2.0977  76.9 22.1 .904  44
2024 10 05 09  07 45 41.954   +16 22 42.34  2.0836 2.0978  77.0 22.1 .925  44
2024 10 05 10  07 45 45.220   +16 22 00.21  2.0831 2.0978  77.0 22.1 .947  44
2024 10 05 11  07 45 48.485   +16 21 18.07  2.0827 2.0978  77.0 22.1 .969  44
2024 10 05 12  07 45 51.747   +16 20 35.92  2.0822 2.0979  77.0 22.1 0.99  44